TimeMDT,TemperatureF,Dew PointF,Humidity,Sea Level PressureIn,VisibilityMPH,Wind Direction,Wind SpeedMPH,Gust SpeedMPH,PrecipitationIn,Events,Conditions,WindDirDegrees,DateUTC
12:53 AM,54.0,44.1,69,29.77,10.0,South,4.6,-,N/A,,Overcast,170,2013-05-28 06:53:00
1:53 AM,55.0,39.9,57,29.75,10.0,Calm,Calm,-,N/A,,Overcast,0,2013-05-28 07:53:00
2:53 AM,51.1,44.1,77,29.77,5.0,NNW,4.6,-,0.02,Rain,Light Rain,340,2013-05-28 08:53:00
3:53 AM,50.0,46.9,89,29.76,5.0,North,5.8,-,0.05,Rain,Light Rain,10,2013-05-28 09:53:00
4:53 AM,48.9,46.9,93,29.76,10.0,West,3.5,-,0.02,,Overcast,280,2013-05-28 10:53:00
5:53 AM,50.0,46.0,86,29.75,8.0,Calm,Calm,-,0.03,Rain,Light Rain,0,2013-05-28 11:53:00
6:53 AM,50.0,44.1,80,29.75,10.0,Calm,Calm,-,0.03,Rain,Light Rain,0,2013-05-28 12:53:00
7:53 AM,50.0,43.0,77,29.75,10.0,WNW,3.5,-,0.00,,Overcast,290,2013-05-28 13:53:00
8:53 AM,50.0,43.0,77,29.76,6.0,West,3.5,-,0.00,Rain,Light Rain,260,2013-05-28 14:53:00
9:00 AM,50.0,42.8,76,29.75,10.0,West,4.6,-,0.00,,Overcast,270,2013-05-28 15:00:00
9:53 AM,50.0,42.1,74,29.78,10.0,West,8.1,-,0.00,,Overcast,280,2013-05-28 15:53:00
10:53 AM,51.1,43.0,74,29.78,6.0,West,3.5,-,0.02,Rain,Light Rain,280,2013-05-28 16:53:00
11:53 AM,51.1,43.0,74,29.79,10.0,West,6.9,-,0.02,Rain,Light Rain,270,2013-05-28 17:53:00
12:53 PM,57.0,44.1,62,29.77,10.0,Variable,6.9,-,0.00,,Overcast,0,2013-05-28 18:53:00
1:17 PM,55.4,46.4,72,29.76,10.0,North,9.2,-,N/A,,Overcast,360,2013-05-28 19:17:00
1:31 PM,55.4,46.4,72,29.76,10.0,North,9.2,-,N/A,,Overcast,10,2013-05-28 19:31:00
1:53 PM,55.0,46.0,72,29.77,10.0,North,8.1,-,N/A,,Overcast,10,2013-05-28 19:53:00
2:53 PM,57.9,46.0,65,29.76,10.0,North,8.1,-,N/A,,Overcast,350,2013-05-28 20:53:00
3:53 PM,60.1,43.0,53,29.75,10.0,NNW,5.8,-,N/A,,Scattered Clouds,330,2013-05-28 21:53:00
4:53 PM,59.0,42.1,53,29.75,10.0,NNW,6.9,-,N/A,,Overcast,330,2013-05-28 22:53:00
5:53 PM,55.0,46.0,72,29.76,10.0,WSW,3.5,-,0.01,Rain,Light Rain,250,2013-05-28 23:53:00
6:53 PM,55.9,45.0,67,29.76,10.0,West,10.4,-,0.03,,Overcast,280,2013-05-29 00:53:00
7:53 PM,57.9,42.1,56,29.75,10.0,WNW,11.5,-,N/A,,Overcast,300,2013-05-29 01:53:00
8:53 PM,55.9,42.1,60,29.77,10.0,West,9.2,-,N/A,,Mostly Cloudy,280,2013-05-29 02:53:00
9:53 PM,55.0,42.1,62,29.79,10.0,WNW,5.8,-,N/A,,Overcast,290,2013-05-29 03:53:00
10:53 PM,53.1,43.0,69,29.80,10.0,WNW,4.6,-,N/A,,Overcast,290,2013-05-29 04:53:00
11:53 PM,52.0,43.0,71,29.79,10.0,West,3.5,-,N/A,,Overcast,260,2013-05-29 05:53:00